TimeCST,TemperatureF,Dew PointF,Humidity,Sea Level PressureIn,VisibilityMPH,Wind Direction,Wind SpeedMPH,Gust SpeedMPH,PrecipitationIn,Events,Conditions,WindDirDegrees,DateUTC
12:15 AM,60.8,55.4,82,30.06,5.0,South,6.9,-,N/A,,Clear,170,2013-01-01 06:15:00
12:35 AM,60.8,57.2,88,30.05,1.8,South,4.6,-,N/A,,Clear,170,2013-01-01 06:35:00
12:55 AM,60.8,57.2,88,30.04,2.5,SE,3.5,-,N/A,,Clear,140,2013-01-01 06:55:00
1:15 AM,60.8,57.2,88,30.03,5.0,South,8.1,-,N/A,,Clear,170,2013-01-01 07:15:00
1:35 AM,60.8,57.2,88,30.03,8.0,South,10.4,-,N/A,,Clear,180,2013-01-01 07:35:00
1:55 AM,62.6,59.0,88,30.03,10.0,South,10.4,-,N/A,,Clear,170,2013-01-01 07:55:00
2:15 AM,62.6,59.0,88,30.03,10.0,South,10.4,-,N/A,,Clear,180,2013-01-01 08:15:00
2:35 AM,62.6,59.0,88,30.02,10.0,South,10.4,16.1,N/A,,Clear,180,2013-01-01 08:35:00
3:15 AM,64.4,60.8,88,30.03,10.0,South,9.2,-,N/A,,Clear,180,2013-01-01 09:15:00
3:35 AM,62.6,60.8,94,30.02,10.0,South,9.2,-,N/A,,Clear,180,2013-01-01 09:35:00
3:55 AM,62.6,60.8,94,30.01,10.0,South,9.2,-,N/A,,Clear,190,2013-01-01 09:55:00
4:15 AM,62.6,60.8,94,30.01,10.0,South,9.2,16.1,N/A,,Clear,180,2013-01-01 10:15:00
4:35 AM,62.6,60.8,94,30.01,10.0,South,9.2,-,N/A,,Clear,180,2013-01-01 10:35:00
5:15 AM,62.6,60.8,94,30.00,10.0,South,12.7,-,N/A,,Clear,180,2013-01-01 11:15:00
5:35 AM,62.6,60.8,94,30.00,10.0,South,12.7,18.4,N/A,,Clear,180,2013-01-01 11:35:00
5:55 AM,62.6,60.8,94,30.00,10.0,South,12.7,-,N/A,,Clear,180,2013-01-01 11:55:00
6:15 AM,62.6,60.8,94,30.00,10.0,South,12.7,-,N/A,,Clear,180,2013-01-01 12:15:00
6:35 AM,62.6,60.8,94,30.00,10.0,South,12.7,-,N/A,,Clear,180,2013-01-01 12:35:00
6:55 AM,62.6,60.8,94,29.99,10.0,South,12.7,19.6,N/A,,Clear,170,2013-01-01 12:55:00
7:15 AM,64.4,62.6,94,30.00,9.0,South,11.5,18.4,N/A,,Clear,180,2013-01-01 13:15:00
7:35 AM,64.4,62.6,94,30.01,9.0,South,9.2,-,N/A,,Scattered Clouds,180,2013-01-01 13:35:00
7:55 AM,64.4,62.6,94,30.00,10.0,South,11.5,-,N/A,,Overcast,180,2013-01-01 13:55:00
8:15 AM,66.2,62.6,88,30.01,10.0,South,10.4,16.1,N/A,,Overcast,180,2013-01-01 14:15:00
8:35 AM,66.2,62.6,88,30.02,10.0,South,9.2,-,N/A,,Overcast,180,2013-01-01 14:35:00
8:55 AM,68.0,64.4,88,30.02,10.0,South,8.1,-,N/A,,Overcast,190,2013-01-01 14:55:00
9:15 AM,69.8,64.4,83,30.02,9.0,South,9.2,-,N/A,,Overcast,180,2013-01-01 15:15:00
9:35 AM,69.8,64.4,83,30.02,9.0,SSW,13.8,20.7,N/A,,Overcast,200,2013-01-01 15:35:00
9:55 AM,69.8,64.4,83,30.02,10.0,SSW,10.4,24.2,N/A,,Overcast,200,2013-01-01 15:55:00
10:15 AM,71.6,64.4,78,30.02,10.0,South,11.5,19.6,N/A,,Overcast,190,2013-01-01 16:15:00
10:35 AM,71.6,64.4,78,30.02,10.0,South,12.7,25.3,N/A,,Overcast,190,2013-01-01 16:35:00
10:55 AM,73.4,64.4,73,30.01,10.0,SSW,18.4,25.3,N/A,,Overcast,200,2013-01-01 16:55:00
11:15 AM,73.4,64.4,73,29.99,10.0,South,12.7,24.2,N/A,,Mostly Cloudy,190,2013-01-01 17:15:00
11:35 AM,73.4,64.4,73,29.98,10.0,South,13.8,20.7,N/A,,Overcast,190,2013-01-01 17:35:00
11:55 AM,73.4,64.4,73,29.97,10.0,SSW,10.4,18.4,N/A,,Mostly Cloudy,200,2013-01-01 17:55:00
12:15 PM,73.4,64.4,73,29.96,10.0,SSW,10.4,17.3,N/A,,Partly Cloudy,200,2013-01-01 18:15:00
12:35 PM,75.2,64.4,69,29.95,10.0,SSW,12.7,19.6,N/A,,Scattered Clouds,200,2013-01-01 18:35:00
12:55 PM,75.2,64.4,69,29.94,10.0,SSW,12.7,19.6,N/A,,Partly Cloudy,210,2013-01-01 18:55:00
1:15 PM,75.2,64.4,69,29.94,10.0,SSW,9.2,19.6,N/A,,Mostly Cloudy,200,2013-01-01 19:15:00
1:35 PM,73.4,64.4,73,29.93,10.0,SSW,11.5,19.6,N/A,,Overcast,200,2013-01-01 19:35:00
1:55 PM,73.4,64.4,73,29.93,10.0,SSW,11.5,18.4,N/A,,Overcast,200,2013-01-01 19:55:00
2:15 PM,73.4,64.4,73,29.93,10.0,SSW,12.7,19.6,N/A,,Overcast,200,2013-01-01 20:15:00
2:35 PM,73.4,64.4,73,29.93,10.0,SSW,10.4,19.6,N/A,,Overcast,200,2013-01-01 20:35:00
3:15 PM,71.6,64.4,78,29.93,10.0,SSW,10.4,19.6,N/A,,Overcast,200,2013-01-01 21:15:00
3:35 PM,71.6,64.4,78,29.93,9.0,SSW,11.5,18.4,N/A,,Overcast,200,2013-01-01 21:35:00
3:55 PM,71.6,66.2,83,29.93,9.0,South,11.5,17.3,N/A,,Overcast,190,2013-01-01 21:55:00
4:15 PM,71.6,64.4,78,29.93,8.0,South,10.4,17.3,N/A,,Overcast,190,2013-01-01 22:15:00
4:35 PM,71.6,64.4,78,29.93,8.0,SSW,9.2,18.4,N/A,,Overcast,200,2013-01-01 22:35:00
4:55 PM,69.8,64.4,83,29.96,3.0,West,10.4,17.3,N/A,,Overcast,270,2013-01-01 22:55:00
5:15 PM,66.2,64.4,94,29.96,5.0,SW,3.5,-,N/A,,Mostly Cloudy,230,2013-01-01 23:15:00
5:35 PM,66.2,64.4,94,29.96,10.0,West,3.5,-,N/A,,Overcast,270,2013-01-01 23:35:00
5:55 PM,66.2,64.4,94,29.97,5.0,North,4.6,-,N/A,,Overcast,360,2013-01-01 23:55:00
6:15 PM,64.4,64.4,100,29.98,7.0,NNW,4.6,-,N/A,,Overcast,330,2013-01-02 00:15:00
6:35 PM,60.8,59.0,94,30.00,5.0,NW,10.4,17.3,N/A,,Overcast,320,2013-01-02 00:35:00
6:55 PM,59.0,57.2,94,30.02,10.0,North,8.1,16.1,N/A,,Overcast,350,2013-01-02 00:55:00
7:15 PM,57.2,55.4,94,30.03,10.0,North,9.2,-,N/A,,Overcast,360,2013-01-02 01:15:00
7:35 PM,57.2,53.6,88,30.04,10.0,NNW,10.4,-,N/A,,Overcast,340,2013-01-02 01:35:00
7:55 PM,57.2,53.6,88,30.04,9.0,North,9.2,-,N/A,,Overcast,10,2013-01-02 01:55:00
8:15 PM,55.4,53.6,94,30.06,10.0,NNW,10.4,16.1,N/A,,Overcast,340,2013-01-02 02:15:00
8:35 PM,55.4,53.6,94,30.05,10.0,North,6.9,17.3,N/A,,Overcast,360,2013-01-02 02:35:00
8:55 PM,55.4,53.6,94,30.05,10.0,North,6.9,-,N/A,,Overcast,360,2013-01-02 02:55:00
9:15 PM,55.4,51.8,88,30.06,10.0,North,9.2,-,N/A,,Overcast,10,2013-01-02 03:15:00
9:35 PM,55.4,51.8,88,30.07,10.0,North,8.1,-,N/A,,Overcast,10,2013-01-02 03:35:00
9:55 PM,55.4,51.8,88,30.07,10.0,North,6.9,-,N/A,,Overcast,360,2013-01-02 03:55:00
10:15 PM,55.4,51.8,88,30.07,10.0,North,8.1,-,N/A,,Overcast,10,2013-01-02 04:15:00
10:35 PM,55.4,50.0,82,30.07,10.0,NNE,8.1,-,N/A,,Overcast,20,2013-01-02 04:35:00
10:55 PM,55.4,50.0,82,30.07,10.0,NNE,9.2,-,N/A,,Overcast,20,2013-01-02 04:55:00
11:15 PM,55.4,50.0,82,30.07,10.0,North,6.9,-,N/A,,Overcast,10,2013-01-02 05:15:00
11:35 PM,53.6,50.0,88,30.07,10.0,North,9.2,-,N/A,,Overcast,10,2013-01-02 05:35:00
11:55 PM,53.6,50.0,88,30.08,10.0,NNW,5.8,-,N/A,,Overcast,340,2013-01-02 05:55:00